Change the Weather History Date:

Saturday, June 8, 2013

  Actual Average Record
Temperature  
Mean Temperature 68 °F 64 °F  
Max Temperature 87 °F 85 °F 99 °F (1985)
Min Temperature 48 °F 44 °F 32 °F (1988)
Degree Days  
Heating Degree Days 0 3  
Month to date heating degree days 11 25  
Since 1 June heating degree days 11 25  
Since 1 July heating degree days 2988 2952  
Cooling Degree Days 3 2  
Month to date cooling degree days 18 16  
Year to date cooling degree days 45 46  
Since 1 June cooling degree days 18 16  
Growing Degree Days 18 (Base 50)    
Moisture  
Dew Point 46 °F    
Average Humidity 52    
Maximum Humidity 83    
Minimum Humidity 20    
Precipitation  
Precipitation 0.00 in 0.00 in 0.02 in (1968)
Month to date precipitation 0.00 0.03  
Year to date precipitation 4.78 10.07  
Since 1 July precipitation 9.25 15.65  
Snow  
Snow 0.00 in - - ()
Month to date snowfall 0.0  
Year to date snowfall 0.0  
Since 1 July snowfall 0.0  
Snow Depth 0.00 in    
Sea Level Pressure  
Sea Level Pressure 29.76 in    
Wind  
Wind Speed 9 mph (South)    
Max Wind Speed 21 mph    
Max Gust Speed 25 mph    
T = Trace of Precipitation, MM = Missing Value Source: NWS Daily Summary

Daily Weather History Graph

Daily Weather History Graph

Search for Another Location

Airport or City:

Trip Planner

Search our weather history database for the weather conditions in past years. The results will help you decide how hot, cold, wet, or windy it might be!

Date:

Astronomy

Jun. 08, 2013 Rise Set
Actual Time 5:37 AM PDT 7:52 PM PDT
Civil Twilight 5:09 AM PDT 8:20 PM PDT
Nautical Twilight 4:34 AM PDT 8:55 PM PDT
Astronomical Twilight 3:57 AM PDT 9:33 PM PDT
Moon 5:46 AM PDT (6/8) 8:01 PM PDT (6/8)
Length of Visible Light 15h 11m
Length of Day
14h 14m
New Moon, 0% of the Moon is Illuminated
Jun 8
New Moon
Jun 16
First Quarter
Jun 23
Full
Jun 29
Last Quarter
Jul 8
New

Hourly Weather History & Observations

Time (PDT) Temp. Dew Point Humidity Pressure Visibility Wind Dir Wind Speed Gust Speed Precip Events Conditions
12:52 AM 57.0 °F 48.9 °F 74% 29.73 in - NE 4.6 mph - N/A   Unknown
1:52 AM 54.0 °F 48.0 °F 80% 29.73 in - Calm Calm - N/A   Unknown
2:52 AM 54.0 °F 46.9 °F 77% 29.72 in - NE 5.8 mph - N/A   Unknown
3:52 AM 50.0 °F 45.0 °F 83% 29.72 in - NE 5.8 mph - N/A   Unknown
4:52 AM 53.1 °F 46.0 °F 77% 29.72 in - NE 4.6 mph - N/A   Unknown
5:52 AM 53.1 °F 45.0 °F 74% 29.73 in - NE 5.8 mph - N/A   Unknown
6:52 AM 59.0 °F 46.9 °F 64% 29.73 in - Calm Calm - N/A   Unknown
7:52 AM 69.1 °F 46.9 °F 45% 29.73 in - Calm Calm - N/A   Unknown
8:52 AM 81.0 °F 36.0 °F 20% 29.73 in - Calm Calm - N/A   Unknown
9:52 AM 82.0 °F 41.0 °F 23% 29.72 in - SW 12.7 mph - N/A   Unknown
10:52 AM 82.0 °F 45.0 °F 27% 29.75 in - SSW 12.7 mph - N/A   Unknown
11:52 AM 82.9 °F 41.0 °F 23% 29.75 in - SSW 18.4 mph - N/A   Unknown
12:52 PM 84.0 °F 39.0 °F 20% 29.76 in - SSW 16.1 mph - N/A   Unknown
1:52 PM 86.0 °F 48.0 °F 27% 29.76 in - SSW 17.3 mph - N/A   Unknown
2:52 PM 84.9 °F 50.0 °F 30% 29.76 in - SSW 16.1 mph 23.0 mph N/A   Unknown
3:52 PM 82.9 °F 48.9 °F 31% 29.77 in - SSW 17.3 mph - N/A   Unknown
4:52 PM 82.0 °F 48.9 °F 31% 29.77 in - SSW 13.8 mph - N/A   Unknown
5:52 PM 80.1 °F 48.9 °F 34% 29.77 in - SSW 10.4 mph - N/A   Unknown
6:52 PM 73.9 °F 52.0 °F 46% 29.78 in - SSW 6.9 mph - N/A   Unknown
7:52 PM 69.1 °F 51.1 °F 53% 29.79 in - SW 5.8 mph - N/A   Unknown
8:52 PM 64.9 °F 51.1 °F 61% 29.79 in - Calm Calm - N/A   Unknown
9:52 PM 57.9 °F 46.0 °F 65% 29.82 in - NE 3.5 mph - N/A   Unknown
10:52 PM 59.0 °F 46.0 °F 62% 29.82 in - Calm Calm - N/A   Unknown
11:52 PM 55.9 °F 45.0 °F 67% 29.82 in - NE 4.6 mph - N/A   Unknown